Location: Port-Aux-Quilles Astronomical Observatory
(47.9769°N, 69.9642°W)
Time: 15:47:50
(UTC-05:00)

Envisat - Pass Details

Date: 26 October 2019
Orbit: 764 x 766 km, 98.1° (Epoch: 22 November)

Event Time Altitude Azimuth Distance (km) Brightness Sun altitude
Rises 19:47:53 0° 203° (SSW) 3,221 6.4 -23.4°
Reaches altitude 10° 19:50:41 10° 219° (SW) 2,300 5.8 -23.8°
Maximum altitude 19:54:33 22° 269° (W) 1,644 5.5 -24.5°
Drops below altitude 10° 19:58:26 10° 319° (NW) 2,313 6.1 -25.1°
Sets 20:01:17 0° 335° (NNW) 3,245 6.7 -25.6°
